CAPE
4 0 1 1 1 1 1 1 2 2 1 1 2 3 1 0 0 0 0 0 0 0 1 0 0 0 0 0 0 2 84 32 1 4 3 0 0 0 0 11 61 47 2 9 13
1 0 0 0 0 0 0 0 1 0 1 0 2 2 1 1 0 0 0 0 3 0 0 0 0 0 0 0 0 2 23 24 26 40 5 1 0 0 1 7 0 0 0 0 10
0 0 1 1 0 0 0 0 0 0 1 2 3 1 0 0 0 0 0 0 0 0 0 0 0 0 0 0 0 1 4 40 49 62 34 31 1 0 0 0 0 0 0 0 14
0 0 0 0 0 0 0 0 0 0 0 1 0 1 0 0 0 0 0 0 1 0 0 0 0 0 0 0 1 6 2 2 31 45 12 27 1 0 0 0 0 0 0 0 13
0 0 0 0 0 0 0 0 0 0 0 0 0 0 0 0 0 0 0 0 0 0 0 0 0 0 0 0 0 0 0 18 7 75 8 17 3 0 0 0 0 0 4 4 6
0 0 0 0 0 0 0 0 0 0 0 0 0 0 0 0 0 0 0 0 0 0 5 1 1 2 0 0 0 0 0 5 0 28 32 8 1 0 0 0 0 0 3 2 2
0 0 0 0 0 0 0 0 0 0 0 0 0 0 0 0 0 0 0 0 2 0 8 15 10 7 0 0 10 0 0 0 2 25 28 40 47 0 0 0 0 0 0 4 0
0 0 0 0 0 0 0 0 0 0 0 0 0 0 0 0 0 0 0 0 2 14 9 6 6 5 26 8 0 1 5 1 3 20 42 29 30 0 0 0 0 0 0 0 3
0 0 0 0 0 0 0 0 0 0 0 0 0 0 0 0 0 0 0 1 4 7 7 19 18 3 6 2 0 14 6 1 19 10 1 8 0 0 0 0 0 0 0 0 0
0 0 0 0 0 0 0 0 0 0 0 0 0 0 0 0 0 0 0 1 0 10 0 9 2 0 1 0 0 0 17 0 6 49 8 0 2 0 0 0 0 0 0 0 0
0 0 0 0 0 0 0 0 0 0 0 0 0 0 0 0 0 0 0 0 0 0 0 0 1 0 1 0 0 0 28 44 30 42 0 3 5 3 0 0 0 0 0 0 0
0 0 0 0 0 0 0 0 0 0 0 0 0 0 0 0 0 0 0 0 0 0 0 0 0 1 0 0 0 1 1 0 5 1 0 2 5 1 0 0 0 0 0 0 0
0 0 0 0 0 0 0 0 0 0 0 0 0 0 0 0 0 0 0 0 0 0 0 0 0 0 0 0 0 0 4 2 0 3 0 0 0 3 3 0 0 0 0 0 0
0 0 0 0 0 0 0 0 0 0 0 0 0 0 0 0 0 0 0 0 0 0 0 0 0 0 0 0 0 0 0 40 0 27 1 0 0 0 3 1 0 0 0 0 0
0 0 0 0 0 0 0 0 0 0 0 0 0 0 0 0 0 0 0 0 0 0 0 0 0 0 0 0 0 0 1 31 13 3 8 3 2 0 0 0 0 0 0 0 0
0 0 0 0 0 0 0 0 0 0 0 0 0 0 0 0 0 0 0 0 0 0 0 0 0 0 0 0 0 0 0 0 0 0 3 0 0 0 0 0 0 0 0 0 0
0 0 0 0 0 0 0 0 0 0 0 0 0 0 0 0 0 0 0 0 0 0 0 0 0 0 0 0 0 0 0 0 0 0 0 0 0 0 0 0 0 0 0 0 0
0 0 0 0 0 0 0 0 0 0 0 0 0 0 0 0 0 0 0 0 0 1 0 0 0 0 0 0 0 0 0 0 0 0 0 0 0 0 0 0 0 0 0 0 0
0 0 0 0 0 0 0 0 0 0 0 0 0 0 0 0 0 0 0 0 0 0 0 0 0 0 0 0 0 0 0 0 0 0 0 0 0 0 0 0 0 0 0 0 0
0 0 0 0 0 0 0 0 0 0 0 0 0 0 0 0 0 0 0 0 0 0 0 0 0 0 0 0 0 0 0 0 0 0 0 0 0 0 0 0 0 0 0 0 0
0 0 0 0 0 0 0 0 0 0 0 0 0 0 0 0 0 0 0 0 0 0 0 0 0 0 0 0 0 0 0 0 0 0 0 0 0 0 0 0 0 0 0 0 0
0 0 0 0 0 0 0 0 0 0 0 0 0 0 0 0 0 0 0 0 0 0 0 0 0 0 0 1 0 0 0 0 0 0 0 0 0 0 0 0 0 0 0 0 0
0 0 0 0 0 0 0 0 0 0 0 0 0 0 0 0 0 0 0 0 0 0 0 0 0 0 0 0 0 0 0 0 0 0 0 0 0 0 0 0 0 0 0 0 0
0 0 0 0 0 0 0 0 0 0 0 0 0 0 0 0 0 0 0 0 0 0 0 0 0 0 0 0 0 0 0 0 0 0 0 0 0 0 0 0 0 0 0 0 0
0 0 0 0 0 0 0 0 0 0 0 0 0 0 0 0 0 0 0 0 0 0 0 0 0 0 0 0 0 0 0 0 0 0 0 0 0 0 0 0 0 0 0 0 0
0 0 0 0 0 0 0 0 0 0 0 0 0 0 0 0 0 0 0 0 0 0 0 0 0 0 0 0 0 0 0 0 0 0 0 0 0 0 0 0 0 0 0 0 0
0 0 0 0 0 0 0 0 0 0 0 0 0 0 0 0 0 0 0 0 0 0 0 0 0 0 0 0 0 0 0 0 0 0 0 0 0 0 0 0 0 0 0 0 0
CIN
0 0 0 0 0 0 0 0 0 0 0 0 0 0 0 0 0 0 0 0 0 0 -2 0 0 0 0 0 0 -13 0 -1 -6 -10 -10 0 0 0 0 -68 -121 -144 -133 -158 -164
0 0 0 0 0 0 0 0 0 0 0 0 0 0 0 -1 0 0 0 0 -1 0 0 0 0 0 0 0 0 -10 0 -2 -7 -22 -11 -5 0 0 -25 -84 0 0 0 -52 -191
0 0 0 0 0 0 0 0 0 0 0 0 0 0 0 0 0 0 0 0 0 0 0 0 0 0 0 0 0 -4 -10 -8 -8 -10 -6 -16 -10 0 0 0 0 0 0 0 -180
0 0 0 0 0 0 0 0 0 0 0 0 0 0 0 0 0 0 0 -2 -5 0 0 0 0 0 0 0 -4 -3 -44 0 -14 -13 -16 -21 -20 0 0 0 0 0 0 0 -199
0 0 0 0 0 0 0 0 0 0 0 0 0 0 0 0 0 0 0 0 0 0 0 0 0 0 0 0 0 0 -6 0 -17 -15 -52 -71 -68 0 0 0 0 0 -130 -188 -173
0 0 0 0 0 0 0 0 0 0 0 0 0 0 0 0 0 0 0 0 0 -2 -2 -1 -2 -4 0 0 0 0 0 -1 0 -4 -37 -38 -47 0 0 0 0 0 -67 -30 -53
0 0 0 0 0 0 0 0 0 0 0 0 0 0 0 0 0 0 0 0 -23 -8 0 -1 -1 -1 -1 -1 -20 0 0 0 -1 -1 -8 -24 -27 0 0 0 0 0 0 -51 0
0 0 0 0 0 0 0 0 0 0 0 0 0 0 0 0 0 0 0 0 -9 -6 -1 0 -2 0 -2 -8 0 0 -2 0 -13 0 -2 -4 -5 0 0 0 0 0 0 0 0
0 0 0 0 0 0 0 0 0 0 0 0 0 0 0 0 0 0 0 -12 -18 -7 -6 -2 -1 0 -3 -1 0 -1 -10 0 -14 -9 -2 -1 0 -10 0 0 0 0 0 0 0
0 0 0 0 0 0 0 0 0 0 0 0 0 0 0 0 0 0 0 -13 0 -1 0 0 0 -1 -1 0 -8 0 -23 -1 -4 -6 -11 -2 0 0 0 0 0 0 0 0 0
0 0 0 0 0 0 0 0 0 0 0 0 0 0 0 0 0 0 0 0 0 0 0 0 0 0 -1 0 0 0 -10 -8 -3 0 0 0 0 -10 0 0 0 0 0 0 0
0 0 0 0 0 0 0 0 0 0 0 0 0 0 0 0 0 0 0 0 0 0 0 0 0 -8 0 0 0 0 0 -12 -5 -2 0 0 0 -1 0 0 0 0 0 0 0
0 0 0 0 0 0 0 0 0 0 0 0 0 0 0 0 0 0 0 0 0 -2 0 0 0 0 0 0 0 -8 -6 -2 0 0 0 0 0 -6 -26 0 0 0 0 0 0
0 0 0 0 0 0 0 0 0 0 0 0 0 0 0 0 0 0 0 0 0 0 0 0 0 0 0 0 0 0 -5 -14 0 -9 -1 0 0 0 -23 -16 0 0 0 0 0
0 0 0 0 0 0 0 0 0 0 0 0 0 0 0 0 0 0 0 0 0 0 0 0 0 0 0 0 0 0 -9 -42 -32 -76 -97 -66 -68 0 0 0 0 0 0 0 0
0 0 0 0 0 0 0 0 0 0 0 0 0 0 0 0 0 0 0 0 0 0 0 0 0 0 0 0 0 0 0 0 0 0 -131 0 0 0 0 0 0 0 0 0 0
0 0 0 0 0 0 0 0 0 0 0 0 0 0 0 0 0 0 0 0 0 0 0 0 0 0 0 0 0 0 0 0 0 0 0 0 0 0 0 0 0 0 0 0 0
0 0 0 0 0 0 0 0 0 0 0 0 0 0 0 0 0 0 0 0 0 0 0 0 0 0 0 0 0 0 0 0 0 0 0 0 0 0 0 0 0 0 0 0 0
0 0 0 0 0 0 0 0 0 0 0 0 0 0 0 0 0 0 0 0 0 0 0 0 0 0 0 0 0 0 0 0 0 0 0 0 0 0 0 0 0 0 0 0 0
0 0 0 0 0 0 0 0 0 0 0 0 0 0 0 0 0 0 0 0 0 0 0 0 0 0 0 0 0 0 0 0 0 0 0 0 0 0 0 0 0 0 0 0 0
0 0 0 0 0 0 0 0 0 0 0 0 0 0 0 0 0 0 0 0 0 0 0 0 0 0 0 0 0 0 0 0 0 0 0 0 0 0 0 0 0 0 0 0 0
0 0 0 0 0 0 0 0 0 0 0 0 0 0 0 0 0 0 0 0 0 0 0 0 0 0 0 0 0 0 0 0 0 0 0 0 0 0 0 0 0 0 0 0 0
0 0 0 0 0 0 0 0 0 0 0 0 0 0 0 0 0 0 0 0 0 0 0 0 0 0 0 0 0 0 0 0 0 0 0 0 0 0 0 0 0 0 0 0 0
0 0 0 0 0 0 0 0 0 0 0 0 0 0 0 0 0 0 0 0 0 0 0 0 0 0 0 0 0 0 0 0 0 0 0 0 0 0 0 0 0 0 0 0 0
0 0 0 0 0 0 0 0 0 0 0 0 0 0 0 0 0 0 0 0 0 0 0 0 0 0 0 0 0 0 0 -3 -1 0 0 0 0 0 0 0 0 0 0 0 0
0 0 0 0 0 0 0 0 0 0 0 0 0 0 0 0 0 0 0 0 0 0 0 0 0 0 0 0 0 0 0 0 0 0 0 0 0 0 0 0 0 0 0 0 0
0 0 0 0 0 0 0 0 0 0 0 0 0 0 0 0 0 0 0 0 0 0 0 0 0 0 0 0 0 0 0 0 0 0 0 0 0 0 0 0 0 0 0 0 0
Wind_Speed
23 24 25 26 27 28 28 28 30 32 32 32 34 34 34 35 34 32 31 24 25 31 32 34 29 28 28 32 33 38 48 57 51 47 37 29 32 27 22 22 23 23 23 19 7
22 24 25 26 27 28 28 28 29 30 32 33 33 33 33 33 33 29 23 21 28 29 30 31 30 27 28 32 33 43 54 60 48 44 41 31 30 27 27 23 25 25 23 19 7
22 24 25 26 27 27 28 28 30 31 32 32 32 32 31 31 30 28 24 20 28 28 28 27 26 24 27 27 33 42 61 52 52 43 38 34 30 27 24 27 25 28 23 15 9
22 24 24 25 26 27 28 26 28 30 30 30 29 29 28 29 34 26 25 25 26 26 28 28 24 23 23 29 29 44 52 48 49 37 36 37 29 27 28 23 24 27 20 14 12
22 24 25 26 26 27 27 26 29 29 29 27 26 25 27 30 25 25 27 24 23 25 26 25 22 21 21 24 30 42 48 42 41 37 33 29 32 30 23 20 17 17 19 16 18
22 23 25 26 27 27 26 26 28 28 27 24 23 21 28 31 23 26 26 24 23 24 23 17 18 16 21 22 32 35 40 43 41 40 29 34 29 30 30 23 16 15 17 19 17
23 24 25 27 28 27 27 27 27 27 23 20 19 20 25 24 25 28 25 24 19 17 12 8 8 7 11 26 30 34 40 39 43 35 32 25 31 30 29 30 20 14 18 24 29
23 25 26 27 29 29 30 28 27 23 20 18 17 21 21 20 25 26 24 23 25 15 9 5 9 10 2 21 23 32 36 38 41 37 39 30 41 27 23 26 30 22 17 22 26
23 25 27 28 29 31 31 31 22 21 20 17 19 21 21 22 30 25 23 24 16 19 19 15 11 24 24 20 23 33 34 38 35 33 29 30 44 32 24 21 28 26 24 23 20
23 25 27 28 30 32 33 26 19 20 21 19 21 22 21 29 24 22 21 21 22 23 13 17 18 22 20 18 20 37 27 33 32 31 31 39 33 29 32 25 27 29 26 29 21
23 25 27 28 28 30 30 22 21 18 24 22 20 21 22 21 19 25 24 19 19 23 26 16 17 18 16 19 26 25 23 28 23 19 21 24 28 26 25 35 31 28 32 27 23
23 25 26 26 25 27 24 23 20 17 16 19 17 19 19 21 25 28 27 26 27 27 20 15 14 14 12 17 27 29 28 23 17 14 18 20 26 30 29 31 34 33 32 28 26
22 24 25 25 20 21 23 22 18 16 17 16 18 20 23 21 24 26 26 22 27 32 26 26 7 14 13 17 28 30 27 19 12 10 11 11 14 20 21 23 27 31 33 33 30
21 22 24 19 19 19 20 22 17 16 17 17 20 21 23 20 23 21 23 23 24 25 22 22 5 4 5 10 15 23 23 19 10 14 17 15 15 16 18 20 23 28 30 32 33
20 20 20 18 16 18 20 18 15 17 23 18 17 15 21 25 20 26 21 22 29 26 26 26 12 3 4 7 11 18 16 17 16 10 12 13 14 15 13 16 21 24 22 31 31
19 19 18 16 17 17 18 15 16 19 19 17 16 22 24 26 24 19 24 22 22 25 27 25 14 10 9 8 7 12 12 14 15 16 17 15 14 11 12 14 13 15 16 19 21
19 19 17 14 16 17 14 17 17 18 15 17 18 19 21 26 24 24 28 31 28 25 24 21 19 10 8 9 8 11 14 22 23 23 21 16 13 13 17 15 15 16 17 16 16
20 15 15 15 15 14 15 17 17 14 12 13 16 17 20 22 24 26 22 27 27 25 23 21 20 12 12 10 12 12 14 19 27 27 22 17 17 17 15 15 16 17 17 17 18
16 16 14 13 14 13 16 17 14 12 13 12 15 17 18 19 19 22 24 23 21 21 22 19 18 7 13 14 14 15 16 16 16 18 23 22 17 16 19 17 18 18 17 18 18
17 16 15 14 11 13 17 16 14 11 12 12 14 15 17 18 18 19 20 20 18 19 17 18 17 15 13 14 14 13 14 18 19 26 27 24 20 20 18 18 19 18 17 20 20
16 17 13 11 11 15 17 15 13 10 12 11 12 14 14 16 17 17 17 17 18 16 17 17 17 15 15 12 13 15 17 16 16 20 24 27 24 17 16 19 20 20 20 22 22
16 19 14 8 14 16 16 13 12 9 10 12 11 12 13 14 15 15 15 15 18 15 16 16 15 15 15 15 12 13 14 16 20 22 21 24 26 14 16 20 20 21 21 22 22
16 16 14 10 16 17 15 13 12 9 7 9 8 9 11 12 14 14 14 14 16 16 14 14 14 13 13 12 13 11 14 14 14 17 21 25 25 15 20 21 22 23 23 23 23
15 16 17 16 16 14 13 12 11 10 8 8 8 9 10 11 14 11 13 14 16 18 15 12 13 13 11 12 12 11 10 7 15 19 20 22 21 19 25 25 24 25 26 26 25
16 19 14 15 15 14 11 9 9 8 8 6 8 6 8 10 10 11 12 13 13 19 15 13 11 12 12 12 10 10 9 9 5 6 17 20 22 23 24 23 24 25 26 27 28
17 18 16 17 13 10 12 11 7 8 4 6 9 3 6 10 10 8 10 13 13 16 15 16 12 11 11 11 10 7 8 9 7 4 8 17 23 22 22 21 23 24 25 27 28
18 17 17 16 14 12 14 10 8 6 8 9 4 6 8 9 10 11 12 12 13 14 15 14 12 13 11 15 11 5 4 6 7 5 4 6 15 19 19 20 21 24 25 27 29
Wind_Direction
354 354 355 354 353 353 354 352 348 348 348 348 347 347 346 345 345 346 344 347 343 335 333 325 318 308 302 289 275 263 252 246 245 246 252 255 250 255 264 260 262 262 267 265 273
354 353 352 352 353 352 352 352 351 350 349 348 349 349 349 350 348 351 355 355 347 343 336 333 324 317 303 292 278 253 248 244 247 248 246 251 250 247 252 254 258 257 269 262 242
351 352 351 352 352 351 352 353 351 349 349 351 352 354 356 357 353 356 358 349 345 340 335 330 326 319 307 299 278 256 243 245 244 246 242 243 244 248 241 249 256 253 260 260 235
349 350 352 352 352 352 350 354 352 351 351 354 356 358 2 1 351 358 356 347 342 339 333 325 322 315 307 295 282 255 242 245 242 244 236 237 237 241 247 249 265 258 255 246 241
347 349 350 351 350 351 352 355 352 351 354 356 0 5 5 1 2 1 352 348 343 338 329 321 316 308 303 303 278 253 237 242 243 241 236 230 234 234 240 251 277 265 254 248 250
344 347 349 350 349 351 352 355 352 352 354 358 5 15 7 2 8 1 358 352 339 334 330 326 318 312 305 302 270 248 236 237 233 231 226 225 232 234 238 248 262 268 258 252 246
341 343 347 347 347 350 352 353 352 352 359 6 14 17 8 12 12 4 2 359 355 348 337 346 351 335 342 285 258 241 227 234 227 232 221 226 227 233 241 241 248 265 264 250 235
339 342 343 345 344 347 347 351 352 360 8 14 27 19 13 20 12 8 17 21 22 40 72 88 1 338 137 251 251 226 217 217 215 222 225 227 220 232 246 243 239 249 261 253 243
337 338 340 342 342 343 344 347 2 10 14 31 27 18 22 19 16 21 28 27 48 55 47 45 25 214 202 223 239 207 210 208 214 223 225 226 225 236 245 248 240 242 252 262 266
336 338 337 339 339 337 338 355 10 18 21 29 30 26 24 14 23 26 33 44 52 52 97 109 143 177 192 241 206 192 209 204 207 220 223 224 230 239 242 248 246 246 255 260 275
334 336 335 337 341 340 347 6 6 13 19 26 26 28 19 25 40 33 40 49 57 64 79 114 136 145 245 238 212 209 204 201 220 233 226 231 227 241 244 242 251 246 241 261 258
332 333 334 339 345 347 1 6 9 17 19 29 32 31 32 39 34 37 44 51 48 52 80 120 138 137 265 224 202 202 196 200 223 241 227 248 251 244 244 249 250 250 252 259 266
330 331 333 337 351 355 4 6 14 25 22 28 34 31 33 40 42 40 48 57 54 54 68 68 209 140 173 200 196 194 194 195 204 224 241 255 280 243 250 256 257 254 255 257 259
330 332 334 347 351 356 1 2 17 28 24 29 31 36 34 46 44 53 57 62 62 62 79 98 217 322 191 171 192 195 208 203 227 223 218 247 259 255 255 258 254 258 258 259 268
328 333 340 346 356 356 357 8 28 23 5 28 37 42 38 44 48 49 67 71 60 70 81 93 149 211 191 213 215 204 218 208 214 247 240 263 268 260 273 266 261 269 273 258 257
326 330 336 344 350 355 357 18 15 13 9 29 39 34 36 38 47 60 62 77 85 83 83 97 169 192 219 233 238 220 214 240 258 254 245 263 267 269 276 276 283 298 302 290 281
323 324 335 347 346 356 11 4 3 2 24 26 32 37 40 36 42 48 51 52 60 70 78 96 110 224 265 257 282 244 243 235 236 239 243 262 274 279 293 298 292 301 312 310 307
316 331 335 342 352 4 1 357 350 11 23 34 34 39 34 34 41 45 57 53 63 72 78 83 96 295 271 292 272 262 254 247 235 237 245 266 272 282 302 309 313 318 319 318 320
323 323 330 341 353 2 349 342 354 12 27 31 33 28 31 35 41 43 50 52 65 77 74 89 97 337 288 276 284 276 268 274 258 260 250 259 273 301 328 321 318 318 326 330 321
313 317 320 333 0 353 337 337 354 11 21 31 20 28 20 30 36 42 45 54 65 75 97 93 95 112 354 301 309 297 291 271 271 252 249 257 268 278 305 311 323 323 321 333 333
308 312 325 340 347 333 324 336 347 3 12 23 22 21 27 28 32 37 44 54 59 71 80 92 89 103 113 42 323 304 286 287 282 270 260 253 263 293 309 324 328 331 333 335 332
301 302 322 333 311 322 317 335 346 359 3 11 28 30 27 30 28 31 37 45 45 65 59 76 88 83 96 111 356 317 310 296 276 273 274 270 264 297 319 321 325 331 332 335 339
295 297 317 312 298 301 319 326 335 345 355 11 28 32 35 24 17 30 33 45 38 42 52 67 66 65 85 104 111 86 317 308 305 293 279 273 271 290 309 318 320 321 326 329 332
292 294 296 299 305 302 304 314 321 332 343 3 16 21 18 10 11 20 20 26 24 16 38 69 50 56 67 83 108 110 104 26 305 290 285 282 284 284 297 307 314 314 316 319 323
284 289 297 298 283 293 300 316 305 319 333 353 352 360 4 355 359 359 8 12 19 356 15 30 31 33 47 51 97 111 111 115 100 339 298 292 288 295 302 309 313 313 314 314 315
276 285 290 294 297 281 293 288 284 309 327 312 325 343 347 345 348 349 356 355 359 355 2 0 17 20 11 18 28 59 127 137 135 43 330 308 295 304 307 311 314 317 318 316 317
271 285 287 288 287 280 277 281 272 297 312 328 309 336 325 337 349 357 354 355 355 351 352 356 7 3 360 352 4 1 133 135 123 96 20 331 320 313 312 315 315 316 316 315 314